Regional Weather Roundup
Issued by NWS

Home | Current Version | Previous Version | Graphics & Text | Print | Product List | Glossary On
Versions: 1 2 3 4 5 6 7 8 9 10 11 12 13 14 15 16 17 18 19 20 21 22 23 24 25 26 27 28 29 30 31 32 33 34 35 36 37 38 39 40 41 42 43 44 45 46 47 48 49 50
000
ASUS43 KTOP 260959
RWRKS

WEATHER ROUNDUP FOR KANSAS
NATIONAL WEATHER SERVICE GOODLAND KS
500 AM CDT WED APR 26 2017

NOTE:  "FAIR" INDICATES FEW OR NO CLOUDS BELOW 12,000 FEET WITH NO
SIGNIFICANT WEATHER AND/OR OBSTRUCTIONS TO VISIBILITY.

KSZ001>006-013>018-027>032-041>047-261100-
NORTHWEST KANSAS

CITY           SKY/WX    TMP DP  RH WIND       PRES   REMARKS
GOODLAND       CLEAR     32  27  81 N15       29.77R WCI  22
HAYS           CLOUDY    39  31  72 N21       29.73  WCI  29
HILL CITY      CLOUDY    38  29  70 N13       29.79R WCI  30
RUSSELL        CLOUDY    38  32  79 N22       29.70S WCI  27
$$

KSZ061>065-074>080-084>089-261100-
SOUTHWEST KANSAS

CITY           SKY/WX    TMP DP  RH WIND       PRES   REMARKS
DODGE CITY     CLOUDY    39  34  82 N23G31    29.71R WCI  28
ELKHART          N/A     41  34  76 N14         N/A
GARDEN CITY    CLOUDY    40  32  73 N20G29    29.75R WCI  30
GREAT BEND     CLOUDY    39  34  82 N18       29.71R WCI  30
$$

KSZ066>073-081>083-090>101-261100-
SOUTHEAST KANSAS

CITY           SKY/WX    TMP DP  RH WIND       PRES   REMARKS
CHANUTE        CLOUDY    48  45  89 N13       29.57R
COFFEYVILLE    CLOUDY    51  47  86 N17       29.54S
HUTCHINSON     CLOUDY    42  36  79 N23G31    29.66R
MEDICINE LODGE   N/A     42  37  82 N16G25    29.66R
NEWTON         CLOUDY    41  37  86 NW20G29   29.64R
PARSONS        CLOUDY    50  47  89 NW14      29.56R
WICHITA INTL   CLOUDY    45  39  79 N13G23    29.66R
WICHITA JABRA  CLOUDY    43  39  86 NW12      29.65R
WICHITA MCCONL CLOUDY    45  37  76 N14       29.64R
WINFIELD       CLOUDY    46  40  79 N15G24    29.63R
$$

KSZ007>012-019>026-033>040-048>060-102>105-261100-
NORTHEAST KANSAS

CITY           SKY/WX    TMP DP  RH WIND       PRES   REMARKS
CONCORDIA      CLOUDY    39  34  82 NW21G31   29.66F WCI  29
EMPORIA        CLOUDY    43  41  93 NW17G24   29.58R
LAWRENCE       LGT RAIN  44  42  93 NW20      29.58R
MANHATTAN      CLOUDY    42  34  73 NW8G17    29.64R
OLATHE IND     CLOUDY    45  43  93 NW22      29.55R
OLATHE EXE     CLOUDY    45  45 100 N10       29.54R FOG
SALINA         CLOUDY    44  36  73 N22G29    29.67S
TOPEKA BILLARD CLOUDY    44  40  85 NW15G22   29.59R
TOPEKA FORBES  CLOUDY    45  39  79 N20       29.56R
$$



USA.gov is the U.S. government's official web portal to all federal, state and local government web resources and services.